Change the Weather History Date:

Friday, December 14, 2012

  Actual Average Record
Temperature  
Mean Temperature 75 °F 62 °F  
Max Temperature 80 °F 72 °F 89 °F (1950)
Min Temperature 69 °F 52 °F 29 °F (1903)
Degree Days  
Heating Degree Days 0 6  
Month to date heating degree days 24 67  
Since 1 July heating degree days 39 127  
Cooling Degree Days 10 3  
Month to date cooling degree days 100 44  
Year to date cooling degree days 5189 4413  
Growing Degree Days 24 (Base 50)    
Moisture  
Dew Point 65 °F    
Average Humidity 73    
Maximum Humidity 84    
Minimum Humidity 62    
Precipitation  
Precipitation T in 0.04 in 0.51 in (1960)
Month to date precipitation T 0.50  
Year to date precipitation 17.47 21.51  
Sea Level Pressure  
Sea Level Pressure 29.99 in    
Wind  
Wind Speed 15 mph (SE)    
Max Wind Speed 26 mph    
Max Gust Speed 31 mph    
Visibility 10 miles    
Events Rain    
T = Trace of Precipitation, MM = Missing Value Source: NWS Daily Summary

Daily Weather History Graph

Daily Weather History Graph

Search for Another Location

Airport or City:

Trip Planner

Search our weather history database for the weather conditions in past years. The results will help you decide how hot, cold, wet, or windy it might be!

Date:

Astronomy

Dec. 14, 2012 Rise Set
Actual Time 7:12 AM CST 5:43 PM CST
Civil Twilight 6:47 AM CST 6:08 PM CST
Nautical Twilight 6:18 AM CST 6:37 PM CST
Astronomical Twilight 5:50 AM CST 7:05 PM CST
Moon 8:23 AM CST (12/14) 7:31 PM CST (12/14)
Length of Visible Light 11h 21m
Length of Day
10h 30m
Waxing Crescent, 3% of the Moon is Illuminated
Dec 14
Waxing Crescent
Dec 19
First Quarter
Dec 28
Full
Jan 4
Last Quarter
Jan 11
New

Hourly Weather History & Observations

Time (CST) Temp. Dew Point Humidity Pressure Visibility Wind Dir Wind Speed Gust Speed Precip Events Conditions
12:53 AM 69.1 °F 60.1 °F 73% 30.09 in 10.0 mi ESE 8.1 mph - N/A   Overcast
1:53 AM 69.1 °F 60.1 °F 73% 30.08 in 10.0 mi ESE 9.2 mph - N/A   Overcast
2:53 AM 69.1 °F 60.1 °F 73% 30.06 in 10.0 mi SE 11.5 mph - N/A   Overcast
3:53 AM 69.1 °F 60.1 °F 73% 30.06 in 10.0 mi ESE 10.4 mph - N/A   Overcast
4:53 AM 69.1 °F 61.0 °F 75% 30.05 in 10.0 mi ESE 10.4 mph - N/A   Mostly Cloudy
5:53 AM 69.1 °F 61.0 °F 75% 30.05 in 10.0 mi ESE 6.9 mph - N/A   Overcast
6:53 AM 69.1 °F 62.1 °F 78% 30.07 in 10.0 mi SE 8.1 mph - N/A   Overcast
7:53 AM 70.0 °F 63.0 °F 78% 30.08 in 10.0 mi SE 9.2 mph - N/A   Overcast
8:53 AM 72.0 °F 64.0 °F 76% 30.07 in 10.0 mi SE 17.3 mph - 0.00 in Rain Light Rain
9:53 AM 75.0 °F 64.0 °F 69% 30.09 in 10.0 mi SE 17.3 mph 23.0 mph 0.00 in   Mostly Cloudy
10:53 AM 77.0 °F 64.0 °F 64% 30.07 in 10.0 mi SSE 20.7 mph 27.6 mph N/A   Mostly Cloudy
11:25 AM 77.0 °F 64.4 °F 65% 30.06 in 10.0 mi SSE 19.6 mph 26.5 mph N/A   Overcast
11:53 AM 78.1 °F 64.0 °F 62% 30.03 in 10.0 mi SE 24.2 mph 28.8 mph N/A   Overcast
12:07 PM 78.8 °F 64.4 °F 61% 30.03 in 10.0 mi SE 20.7 mph 31.1 mph N/A   Overcast
12:53 PM 78.1 °F 64.9 °F 64% 30.00 in 10.0 mi SSE 18.4 mph 27.6 mph N/A   Mostly Cloudy
1:53 PM 78.1 °F 64.9 °F 64% 29.95 in 10.0 mi SE 21.9 mph 26.5 mph N/A   Overcast
2:19 PM 78.8 °F 66.2 °F 65% 29.94 in 10.0 mi SE 20.7 mph - N/A   Mostly Cloudy
2:53 PM 79.0 °F 66.0 °F 64% 29.93 in 10.0 mi SE 19.6 mph 29.9 mph N/A   Overcast
3:53 PM 78.1 °F 66.0 °F 66% 29.90 in 10.0 mi SE 20.7 mph 29.9 mph N/A   Mostly Cloudy
4:51 PM 75.2 °F 66.2 °F 73% 29.92 in 10.0 mi SSE 16.1 mph 26.5 mph N/A   Mostly Cloudy
4:53 PM 75.9 °F 66.0 °F 71% 29.91 in 10.0 mi SSE 13.8 mph 26.5 mph N/A   Mostly Cloudy
5:15 PM 75.2 °F 66.2 °F 73% 29.88 in 10.0 mi SE 18.4 mph 29.9 mph N/A   Scattered Clouds
5:53 PM 75.0 °F 66.9 °F 76% 29.89 in 10.0 mi SSE 17.3 mph 24.2 mph N/A   Partly Cloudy
6:53 PM 73.9 °F 66.9 °F 79% 29.89 in 10.0 mi SSE 20.7 mph 27.6 mph N/A   Clear
7:32 PM 73.4 °F 66.2 °F 78% 29.92 in 10.0 mi SSE 15.0 mph 23.0 mph N/A   Mostly Cloudy
7:53 PM 73.9 °F 66.9 °F 79% 29.92 in 10.0 mi SE 18.4 mph - N/A   Overcast
8:53 PM 73.9 °F 66.9 °F 79% 29.93 in 10.0 mi SSE 11.5 mph - N/A   Overcast
9:53 PM 73.0 °F 66.9 °F 81% 29.92 in 10.0 mi SSE 13.8 mph - N/A   Scattered Clouds
10:53 PM 73.0 °F 68.0 °F 84% 29.91 in 10.0 mi SE 12.7 mph - N/A   Clear
11:53 PM 73.0 °F 68.0 °F 84% 29.91 in 10.0 mi SE 10.4 mph - N/A   Clear